Year,Month,Day,Hour,Minute,Value (Times are PST for windspeed in km/hr)
2008,07,14,00,17,47.60
2008,07,14,00,18,47.60
2008,07,14,00,19,47.60
2008,07,14,00,20,47.60
2008,07,14,00,21,47.60
2008,07,14,00,22,47.60
2008,07,14,00,23,47.60
2008,07,14,00,24,47.60
2008,07,14,00,25,47.60
2008,07,14,00,26,47.60
2008,07,14,00,27,47.60
2008,07,14,00,28,47.60
2008,07,14,00,29,47.60
2008,07,14,00,30,47.60
2008,07,14,00,31,47.60
2008,07,14,00,32,71.50
2008,07,14,00,33,71.50
2008,07,14,00,34,71.50
2008,07,14,00,35,71.50
2008,07,14,00,36,71.50
2008,07,14,00,37,71.50
2008,07,14,00,38,71.50
2008,07,14,00,39,71.50
2008,07,14,00,40,71.50
2008,07,14,00,41,71.50
2008,07,14,00,42,71.50
2008,07,14,00,43,71.50
2008,07,14,00,44,71.50
2008,07,14,00,45,71.50
2008,07,14,00,46,71.50
2008,07,14,00,47,80.60
2008,07,14,00,48,80.60
2008,07,14,00,49,80.60
2008,07,14,00,50,80.60
2008,07,14,00,51,80.60
2008,07,14,00,52,80.60
2008,07,14,00,54,80.60
2008,07,14,00,55,80.60
2008,07,14,00,56,80.60
2008,07,14,00,57,80.60
2008,07,14,00,58,80.60
2008,07,14,00,59,80.60
2008,07,14,01,00,80.60
2008,07,14,01,01,80.60
2008,07,14,01,02,74.50
2008,07,14,01,03,74.50
2008,07,14,01,04,74.50
2008,07,14,01,05,74.50
2008,07,14,01,06,74.50
2008,07,14,01,07,74.50
2008,07,14,01,08,74.50
2008,07,14,01,09,74.50
2008,07,14,01,10,74.50
2008,07,14,01,11,74.50
2008,07,14,01,12,74.50
2008,07,14,01,13,74.50
2008,07,14,01,14,74.50
2008,07,14,01,15,74.50
2008,07,14,01,16,74.50
2008,07,14,01,17,80.60
2008,07,14,01,18,80.60
2008,07,14,01,19,80.60
2008,07,14,01,20,80.60
2008,07,14,01,21,80.60
2008,07,14,01,22,80.60
2008,07,14,01,23,80.60
2008,07,14,01,24,80.60
2008,07,14,01,25,80.60
2008,07,14,01,26,80.60
2008,07,14,01,27,80.60
2008,07,14,01,28,80.60
2008,07,14,01,29,80.60
2008,07,14,01,30,80.60
2008,07,14,01,31,80.60
2008,07,14,01,32,68.50
2008,07,14,01,33,68.50
2008,07,14,01,34,68.50
2008,07,14,01,35,68.50
2008,07,14,01,36,68.50
2008,07,14,01,37,68.50
2008,07,14,01,38,68.50
2008,07,14,01,39,68.50
2008,07,14,01,40,68.50
2008,07,14,01,41,68.50
2008,07,14,01,42,68.50
2008,07,14,01,43,68.50
2008,07,14,01,44,68.50
2008,07,14,01,45,68.50
2008,07,14,01,46,68.50
2008,07,14,01,47,71.50
2008,07,14,01,48,71.50
2008,07,14,01,49,71.50
2008,07,14,01,50,71.50
2008,07,14,01,51,71.50
2008,07,14,01,52,71.50
2008,07,14,01,53,71.50
2008,07,14,01,54,71.50
2008,07,14,01,55,71.50
2008,07,14,01,56,71.50
2008,07,14,01,57,71.50
2008,07,14,01,58,71.50
2008,07,14,01,59,71.50
2008,07,14,02,00,71.50
2008,07,14,02,01,71.50
2008,07,14,02,02,68.50
2008,07,14,02,03,68.50
2008,07,14,02,04,68.50
2008,07,14,02,05,68.50
2008,07,14,02,06,68.50
2008,07,14,02,07,68.50
2008,07,14,02,08,68.50
2008,07,14,02,09,68.50
2008,07,14,02,10,68.50
2008,07,14,02,11,68.50
2008,07,14,02,12,68.50
2008,07,14,02,13,68.50
2008,07,14,02,14,68.50
2008,07,14,02,15,68.50
2008,07,14,02,16,68.50
2008,07,14,02,18,98.30
2008,07,14,02,19,98.30
2008,07,14,02,21,98.30
2008,07,14,02,22,98.30
2008,07,14,02,23,98.30
2008,07,14,02,24,98.30
2008,07,14,02,25,98.30
2008,07,14,02,26,98.30
2008,07,14,02,27,98.30
2008,07,14,02,28,98.30
2008,07,14,02,29,98.30
2008,07,14,02,30,98.30
2008,07,14,02,31,98.30
2008,07,14,02,32,83.50
2008,07,14,02,33,83.50
2008,07,14,02,34,83.50
2008,07,14,02,36,83.50
2008,07,14,02,37,83.50
2008,07,14,02,38,83.50
2008,07,14,02,39,83.50
2008,07,14,02,40,83.50
2008,07,14,02,41,83.50
2008,07,14,02,42,83.50
2008,07,14,02,43,83.50
2008,07,14,02,44,83.50
2008,07,14,02,45,83.50
2008,07,14,02,46,83.50
2008,07,14,02,47,71.50
2008,07,14,02,48,71.50
2008,07,14,02,49,71.50
2008,07,14,02,50,71.50
2008,07,14,02,51,71.50
2008,07,14,02,52,71.50
2008,07,14,02,53,71.50
2008,07,14,02,54,71.50
2008,07,14,02,55,71.50
2008,07,14,02,56,71.50
2008,07,14,02,57,71.50
2008,07,14,02,58,71.50
2008,07,14,02,59,71.50
2008,07,14,03,00,71.50
2008,07,14,03,01,71.50
2008,07,14,03,02,71.50
2008,07,14,03,03,71.50
2008,07,14,03,04,71.50
2008,07,14,03,05,71.50
2008,07,14,03,06,71.50
2008,07,14,03,07,71.50
2008,07,14,03,08,71.50
2008,07,14,03,09,71.50
2008,07,14,03,10,71.50
2008,07,14,03,11,71.50
2008,07,14,03,12,71.50
2008,07,14,03,13,71.50
2008,07,14,03,14,71.50
2008,07,14,03,16,71.50
2008,07,14,03,17,68.50
2008,07,14,03,18,68.50
2008,07,14,03,19,68.50
2008,07,14,03,20,68.50
2008,07,14,03,21,68.50
2008,07,14,03,22,68.50
2008,07,14,03,23,68.50
2008,07,14,03,24,68.50
2008,07,14,03,25,68.50
2008,07,14,03,26,68.50
2008,07,14,03,27,68.50
2008,07,14,03,28,68.50
2008,07,14,03,29,68.50
2008,07,14,03,30,68.50
2008,07,14,03,31,68.50
2008,07,14,03,32,77.40
2008,07,14,03,33,77.40
2008,07,14,03,34,77.40
2008,07,14,03,35,77.40
2008,07,14,03,36,77.40
2008,07,14,03,37,77.40
2008,07,14,03,38,77.40
2008,07,14,03,39,77.40
2008,07,14,03,40,77.40
2008,07,14,03,41,77.40
2008,07,14,03,42,77.40
2008,07,14,03,43,77.40
2008,07,14,03,44,77.40
2008,07,14,03,45,77.40
2008,07,14,03,46,77.40
2008,07,14,03,47,89.50
2008,07,14,03,48,89.50
2008,07,14,03,49,89.50
2008,07,14,03,50,89.50
2008,07,14,03,51,89.50
2008,07,14,03,52,89.50
2008,07,14,03,53,89.50
2008,07,14,03,54,89.50
2008,07,14,03,55,89.50
2008,07,14,03,56,89.50
2008,07,14,03,57,89.50
2008,07,14,03,58,89.50
2008,07,14,03,59,89.50
2008,07,14,04,00,89.50
2008,07,14,04,01,89.50
2008,07,14,04,02,68.50
2008,07,14,04,03,68.50
2008,07,14,04,04,68.50
2008,07,14,04,05,68.50
2008,07,14,04,06,68.50
2008,07,14,04,07,68.50
2008,07,14,04,08,68.50
2008,07,14,04,09,68.50
2008,07,14,04,10,68.50
2008,07,14,04,11,68.50
2008,07,14,04,12,68.50
2008,07,14,04,13,68.50
2008,07,14,04,14,68.50
2008,07,14,04,15,68.50
2008,07,14,04,16,68.50
2008,07,14,04,17,56.70
2008,07,14,04,18,56.70
2008,07,14,04,19,56.70
2008,07,14,04,20,56.70
2008,07,14,04,21,56.70
2008,07,14,04,22,56.70
2008,07,14,04,23,56.70
2008,07,14,04,24,56.70
2008,07,14,04,25,56.70
2008,07,14,04,26,56.70
2008,07,14,04,27,56.70
2008,07,14,04,28,56.70
2008,07,14,04,29,56.70
2008,07,14,04,30,56.70
2008,07,14,04,31,56.70
2008,07,14,04,32,71.50
2008,07,14,04,33,71.50
2008,07,14,04,34,71.50
2008,07,14,04,35,71.50
2008,07,14,04,36,71.50
2008,07,14,04,37,71.50
2008,07,14,04,38,71.50
2008,07,14,04,39,71.50
2008,07,14,04,40,71.50
2008,07,14,04,41,71.50
2008,07,14,04,42,71.50
2008,07,14,04,43,71.50
2008,07,14,04,44,71.50
2008,07,14,04,45,71.50
2008,07,14,04,46,71.50
2008,07,14,04,47,71.50
2008,07,14,04,48,71.50
2008,07,14,04,49,71.50
2008,07,14,04,50,71.50
2008,07,14,04,51,71.50
2008,07,14,04,52,71.50
2008,07,14,04,53,71.50
2008,07,14,04,54,71.50
2008,07,14,04,55,71.50
2008,07,14,04,56,71.50
2008,07,14,04,57,71.50
2008,07,14,04,58,71.50
2008,07,14,04,59,71.50
2008,07,14,05,00,71.50
2008,07,14,05,01,71.50
2008,07,14,05,02,53.70
2008,07,14,05,03,53.70
2008,07,14,05,04,53.70
2008,07,14,05,05,53.70
2008,07,14,05,06,53.70
2008,07,14,05,07,53.70
2008,07,14,05,08,53.70
2008,07,14,05,09,53.70
2008,07,14,05,10,53.70
2008,07,14,05,11,53.70
2008,07,14,05,12,53.70
2008,07,14,05,13,53.70
2008,07,14,05,14,53.70
2008,07,14,05,15,53.70
2008,07,14,05,16,53.70
2008,07,14,05,17,53.70
2008,07,14,05,18,53.70
2008,07,14,05,19,53.70
2008,07,14,05,20,53.70
2008,07,14,05,21,53.70
2008,07,14,05,22,53.70
2008,07,14,05,23,53.70
2008,07,14,05,24,53.70
2008,07,14,05,25,53.70
2008,07,14,05,26,53.70
2008,07,14,05,27,53.70
2008,07,14,05,28,53.70
2008,07,14,05,29,53.70
2008,07,14,05,30,53.70
2008,07,14,05,31,53.70
2008,07,14,05,32,68.50
2008,07,14,05,33,68.50
2008,07,14,05,34,68.50
2008,07,14,05,35,68.50
2008,07,14,05,36,68.50
2008,07,14,05,37,68.50
2008,07,14,05,38,68.50
2008,07,14,05,39,68.50
2008,07,14,05,40,68.50
2008,07,14,05,41,68.50
2008,07,14,05,42,68.50
2008,07,14,05,43,68.50
2008,07,14,05,44,68.50
2008,07,14,05,46,68.50
2008,07,14,05,47,83.50
2008,07,14,05,48,83.50
2008,07,14,05,49,83.50
2008,07,14,05,50,83.50
2008,07,14,05,51,83.50
2008,07,14,05,52,83.50
2008,07,14,05,53,83.50
2008,07,14,05,54,83.50
2008,07,14,05,55,83.50
2008,07,14,05,56,83.50
2008,07,14,05,57,83.50
2008,07,14,05,58,83.50
2008,07,14,05,59,83.50
2008,07,14,06,00,83.50
2008,07,14,06,01,83.50
2008,07,14,06,03,44.60
2008,07,14,06,04,44.60
2008,07,14,06,05,44.60
2008,07,14,06,06,44.60
2008,07,14,06,07,44.60
2008,07,14,06,08,44.60
2008,07,14,06,09,44.60
2008,07,14,06,10,44.60
2008,07,14,06,11,44.60
2008,07,14,06,12,44.60
2008,07,14,06,13,44.60
2008,07,14,06,14,44.60
2008,07,14,06,15,44.60
2008,07,14,06,16,44.60
2008,07,14,06,17,53.70
2008,07,14,06,18,53.70
2008,07,14,06,19,53.70
2008,07,14,06,20,53.70
2008,07,14,06,21,53.70
2008,07,14,06,22,53.70
2008,07,14,06,23,53.70
2008,07,14,06,24,53.70
2008,07,14,06,25,53.70
2008,07,14,06,26,53.70
2008,07,14,06,27,53.70
2008,07,14,06,28,53.70
2008,07,14,06,29,53.70
2008,07,14,06,30,53.70
2008,07,14,06,31,53.70
2008,07,14,06,32,83.50
2008,07,14,06,33,83.50
2008,07,14,06,34,83.50
2008,07,14,06,35,83.50
2008,07,14,06,36,83.50
2008,07,14,06,37,83.50
2008,07,14,06,38,83.50
2008,07,14,06,39,83.50
2008,07,14,06,40,83.50
2008,07,14,06,41,83.50
2008,07,14,06,42,83.50
2008,07,14,06,43,83.50
2008,07,14,06,44,83.50
2008,07,14,06,45,83.50
2008,07,14,06,46,83.50
2008,07,14,06,47,71.50
2008,07,14,06,48,71.50
2008,07,14,06,49,71.50
2008,07,14,06,50,71.50
2008,07,14,06,52,71.50
2008,07,14,06,53,71.50
2008,07,14,06,54,71.50
2008,07,14,06,55,71.50
2008,07,14,06,56,71.50
2008,07,14,06,57,71.50
2008,07,14,06,58,71.50
2008,07,14,07,00,71.50
2008,07,14,07,01,71.50
2008,07,14,07,02,50.70
2008,07,14,07,03,50.70
2008,07,14,07,04,50.70
2008,07,14,07,05,50.70
2008,07,14,07,06,50.70
2008,07,14,07,07,50.70
2008,07,14,07,08,50.70
2008,07,14,07,09,50.70
2008,07,14,07,10,50.70
2008,07,14,07,11,50.70
2008,07,14,07,12,50.70
2008,07,14,07,13,50.70
2008,07,14,07,14,50.70
2008,07,14,07,15,50.70
2008,07,14,07,16,50.70
2008,07,14,07,17,44.60
2008,07,14,07,18,44.60
2008,07,14,07,19,44.60
2008,07,14,07,20,44.60
2008,07,14,07,21,44.60
2008,07,14,07,22,44.60
2008,07,14,07,23,44.60
2008,07,14,07,24,44.60
2008,07,14,07,25,44.60
2008,07,14,07,26,44.60
2008,07,14,07,27,44.60
2008,07,14,07,28,44.60
2008,07,14,07,29,44.60
2008,07,14,07,30,44.60
2008,07,14,07,31,44.60
2008,07,14,07,32,53.70
2008,07,14,07,33,53.70
2008,07,14,07,34,53.70
2008,07,14,07,35,53.70
2008,07,14,07,36,53.70
2008,07,14,07,37,53.70
2008,07,14,07,38,53.70
2008,07,14,07,39,53.70
2008,07,14,07,40,53.70
2008,07,14,07,41,53.70
2008,07,14,07,42,53.70
2008,07,14,07,43,53.70
2008,07,14,07,44,53.70
2008,07,14,07,45,53.70
2008,07,14,07,46,53.70
2008,07,14,07,47,50.70
2008,07,14,07,48,50.70
2008,07,14,07,49,50.70
2008,07,14,07,50,50.70
2008,07,14,07,51,50.70
2008,07,14,07,52,50.70
2008,07,14,07,53,50.70
2008,07,14,07,55,50.70
2008,07,14,07,56,50.70
2008,07,14,07,57,50.70
2008,07,14,07,58,50.70
2008,07,14,07,59,50.70
2008,07,14,08,00,50.70
2008,07,14,08,01,50.70
2008,07,14,08,02,44.60
2008,07,14,08,03,44.60
2008,07,14,08,04,44.60
2008,07,14,08,05,44.60
2008,07,14,08,06,44.60
2008,07,14,08,07,44.60
2008,07,14,08,08,44.60
2008,07,14,08,09,44.60
2008,07,14,08,10,44.60
2008,07,14,08,11,44.60
2008,07,14,08,12,44.60
2008,07,14,08,13,44.60
2008,07,14,08,14,44.60
2008,07,14,08,15,44.60
2008,07,14,08,16,44.60
2008,07,14,08,17,71.50
2008,07,14,08,18,71.50
2008,07,14,08,19,71.50
2008,07,14,08,20,71.50
2008,07,14,08,21,71.50
2008,07,14,08,22,71.50
2008,07,14,08,23,71.50
2008,07,14,08,24,71.50
2008,07,14,08,25,71.50
2008,07,14,08,26,71.50
2008,07,14,08,27,71.50
2008,07,14,08,28,71.50
2008,07,14,08,29,71.50
2008,07,14,08,30,71.50
2008,07,14,08,31,71.50
2008,07,14,08,32,68.50
2008,07,14,08,33,68.50
2008,07,14,08,34,68.50
2008,07,14,08,35,68.50
2008,07,14,08,36,68.50
2008,07,14,08,37,68.50
2008,07,14,08,38,68.50
2008,07,14,08,39,68.50
2008,07,14,08,40,68.50
2008,07,14,08,41,68.50
2008,07,14,08,42,68.50
2008,07,14,08,43,68.50
2008,07,14,08,44,68.50
2008,07,14,08,45,68.50
2008,07,14,08,46,68.50
2008,07,14,08,47,65.60
2008,07,14,08,48,65.60
2008,07,14,08,49,65.60
2008,07,14,08,50,65.60
2008,07,14,08,51,65.60
2008,07,14,08,52,65.60
2008,07,14,08,53,65.60
2008,07,14,08,54,65.60
2008,07,14,08,55,65.60
2008,07,14,08,56,65.60
2008,07,14,08,57,65.60
2008,07,14,08,58,65.60
2008,07,14,08,59,65.60
2008,07,14,09,00,65.60
2008,07,14,09,01,65.60
2008,07,14,09,02,68.50
2008,07,14,09,03,68.50
2008,07,14,09,04,68.50
2008,07,14,09,05,68.50
2008,07,14,09,06,68.50
2008,07,14,09,07,68.50
2008,07,14,09,08,68.50
2008,07,14,09,09,68.50
2008,07,14,09,10,68.50
2008,07,14,09,11,68.50
2008,07,14,09,12,68.50
2008,07,14,09,13,68.50
2008,07,14,09,14,68.50
2008,07,14,09,15,68.50
2008,07,14,09,16,68.50
2008,07,14,09,17,56.70
2008,07,14,09,18,56.70
2008,07,14,09,19,56.70
2008,07,14,09,20,56.70
2008,07,14,09,21,56.70
2008,07,14,09,22,56.70
2008,07,14,09,23,56.70
2008,07,14,09,24,56.70
2008,07,14,09,25,56.70
2008,07,14,09,26,56.70
2008,07,14,09,27,56.70
2008,07,14,09,28,56.70
2008,07,14,09,29,56.70
2008,07,14,09,30,56.70
2008,07,14,09,31,56.70
2008,07,14,09,32,44.60
2008,07,14,09,33,44.60
2008,07,14,09,34,44.60
2008,07,14,09,35,44.60
2008,07,14,09,36,44.60
2008,07,14,09,37,44.60
2008,07,14,09,38,44.60
2008,07,14,09,40,44.60
2008,07,14,09,41,44.60
2008,07,14,09,42,44.60
2008,07,14,09,43,44.60
2008,07,14,09,44,44.60
2008,07,14,09,45,44.60
2008,07,14,09,46,44.60
2008,07,14,09,47,35.70
2008,07,14,09,48,35.70
2008,07,14,09,49,35.70
2008,07,14,09,50,35.70
2008,07,14,09,51,35.70
2008,07,14,09,52,35.70
2008,07,14,09,53,35.70
2008,07,14,09,54,35.70
2008,07,14,09,55,35.70
2008,07,14,09,56,35.70
2008,07,14,09,57,35.70
2008,07,14,09,59,35.70
2008,07,14,10,00,35.70
2008,07,14,10,01,35.70
2008,07,14,10,02,41.70
2008,07,14,10,03,41.70
2008,07,14,10,04,41.70
2008,07,14,10,05,41.70
2008,07,14,10,06,41.70
2008,07,14,10,07,41.70
2008,07,14,10,08,41.70
2008,07,14,10,09,41.70
2008,07,14,10,10,41.70
2008,07,14,10,11,41.70
2008,07,14,10,12,41.70
2008,07,14,10,13,41.70
2008,07,14,10,14,41.70
2008,07,14,10,15,41.70
2008,07,14,10,16,41.70
2008,07,14,10,17,47.60
2008,07,14,10,18,47.60
2008,07,14,10,19,47.60
2008,07,14,10,20,47.60
2008,07,14,10,21,47.60
2008,07,14,10,22,47.60
2008,07,14,10,23,47.60
2008,07,14,10,24,47.60
2008,07,14,10,25,47.60
2008,07,14,10,26,47.60
2008,07,14,10,27,47.60
2008,07,14,10,28,47.60
2008,07,14,10,29,47.60
2008,07,14,10,30,47.60
2008,07,14,10,31,47.60
2008,07,14,10,32,41.70
2008,07,14,10,33,41.70
2008,07,14,10,34,41.70
2008,07,14,10,35,41.70
2008,07,14,10,36,41.70
2008,07,14,10,37,41.70
2008,07,14,10,38,41.70
2008,07,14,10,39,41.70
2008,07,14,10,40,41.70
2008,07,14,10,41,41.70
2008,07,14,10,42,41.70
2008,07,14,10,43,41.70
2008,07,14,10,44,41.70
2008,07,14,10,45,41.70
2008,07,14,10,46,41.70
2008,07,14,10,47,44.60
2008,07,14,10,48,44.60
2008,07,14,10,49,44.60
2008,07,14,10,50,44.60
2008,07,14,10,51,44.60
2008,07,14,10,52,44.60
2008,07,14,10,53,44.60
2008,07,14,10,54,44.60
2008,07,14,10,55,44.60
2008,07,14,10,56,44.60
2008,07,14,10,57,44.60
2008,07,14,10,58,44.60
2008,07,14,10,59,44.60
2008,07,14,11,00,44.60
2008,07,14,11,01,44.60
2008,07,14,11,02,47.60
2008,07,14,11,03,47.60
2008,07,14,11,04,47.60
2008,07,14,11,05,47.60
2008,07,14,11,06,47.60
2008,07,14,11,07,47.60
2008,07,14,11,08,47.60
2008,07,14,11,09,47.60
2008,07,14,11,10,47.60
2008,07,14,11,11,47.60
2008,07,14,11,12,47.60
2008,07,14,11,13,47.60
2008,07,14,11,14,47.60
2008,07,14,11,15,47.60
2008,07,14,11,16,47.60
2008,07,14,11,17,47.60
2008,07,14,11,18,47.60
2008,07,14,11,19,47.60
2008,07,14,11,20,47.60
2008,07,14,11,21,47.60
2008,07,14,11,22,47.60
2008,07,14,11,23,47.60
2008,07,14,11,24,47.60
2008,07,14,11,25,47.60
2008,07,14,11,26,47.60
2008,07,14,11,27,47.60
2008,07,14,11,28,47.60
2008,07,14,11,29,47.60
2008,07,14,11,30,47.60
2008,07,14,11,31,47.60
2008,07,14,11,32,50.70
2008,07,14,11,33,50.70
2008,07,14,11,34,50.70
2008,07,14,11,35,50.70
2008,07,14,11,36,50.70
2008,07,14,11,37,50.70
2008,07,14,11,38,50.70
2008,07,14,11,39,50.70
2008,07,14,11,40,50.70
2008,07,14,11,41,50.70
2008,07,14,11,42,50.70
2008,07,14,11,43,50.70
2008,07,14,11,44,50.70
2008,07,14,11,45,50.70
2008,07,14,11,46,50.70
2008,07,14,11,47,44.60
2008,07,14,11,48,44.60
2008,07,14,11,49,44.60
2008,07,14,11,50,44.60
2008,07,14,11,51,44.60
2008,07,14,11,53,44.60
2008,07,14,11,54,44.60
2008,07,14,11,55,44.60
2008,07,14,11,56,44.60
2008,07,14,11,57,44.60
2008,07,14,11,58,44.60
2008,07,14,11,59,44.60
2008,07,14,12,00,44.60
2008,07,14,12,01,44.60
2008,07,14,12,02,32.80
2008,07,14,12,03,32.80
2008,07,14,12,04,32.80
2008,07,14,12,05,32.80
2008,07,14,12,06,32.80
2008,07,14,12,07,32.80
2008,07,14,12,08,32.80
2008,07,14,12,09,32.80
2008,07,14,12,10,32.80
2008,07,14,12,11,32.80
2008,07,14,12,12,32.80
2008,07,14,12,13,32.80
2008,07,14,12,14,32.80
2008,07,14,12,15,32.80
2008,07,14,12,16,32.80
2008,07,14,12,17,38.70
2008,07,14,12,18,38.70
2008,07,14,12,19,38.70
2008,07,14,12,20,38.70
2008,07,14,12,21,38.70
2008,07,14,12,22,38.70
2008,07,14,12,23,38.70
2008,07,14,12,24,38.70
2008,07,14,12,25,38.70
2008,07,14,12,26,38.70
2008,07,14,12,27,38.70
2008,07,14,12,28,38.70
2008,07,14,12,29,38.70
2008,07,14,12,30,38.70
2008,07,14,12,31,38.70
2008,07,14,12,32,29.80
2008,07,14,12,33,29.80
2008,07,14,12,34,29.80
2008,07,14,12,35,29.80
2008,07,14,12,36,29.80
2008,07,14,12,37,29.80
2008,07,14,12,38,29.80
2008,07,14,12,39,29.80
2008,07,14,12,40,29.80
2008,07,14,12,41,29.80
2008,07,14,12,42,29.80
2008,07,14,12,43,29.80
2008,07,14,12,44,29.80
2008,07,14,12,45,29.80
2008,07,14,12,46,29.80
2008,07,14,12,47,35.70
2008,07,14,12,48,35.70
2008,07,14,12,49,35.70
2008,07,14,12,50,35.70
2008,07,14,12,51,35.70
2008,07,14,12,52,35.70
2008,07,14,12,53,35.70
2008,07,14,12,54,35.70
2008,07,14,12,55,35.70
2008,07,14,12,56,35.70
2008,07,14,12,57,35.70
2008,07,14,12,58,35.70
2008,07,14,12,59,35.70
2008,07,14,13,00,35.70
2008,07,14,13,01,35.70
2008,07,14,13,02,56.70
2008,07,14,13,03,56.70
2008,07,14,13,04,56.70
2008,07,14,13,05,56.70
2008,07,14,13,06,56.70
2008,07,14,13,07,56.70
2008,07,14,13,08,56.70
2008,07,14,13,09,56.70
2008,07,14,13,10,56.70
2008,07,14,13,11,56.70
2008,07,14,13,12,56.70
2008,07,14,13,13,56.70
2008,07,14,13,14,56.70
2008,07,14,13,15,56.70
2008,07,14,13,16,56.70
2008,07,14,13,17,50.70
2008,07,14,13,18,50.70
2008,07,14,13,19,50.70
2008,07,14,13,20,50.70
2008,07,14,13,21,50.70
2008,07,14,13,22,50.70
2008,07,14,13,23,50.70
2008,07,14,13,24,50.70
2008,07,14,13,25,50.70
2008,07,14,13,26,50.70
2008,07,14,13,27,50.70
2008,07,14,13,28,50.70
2008,07,14,13,29,50.70
2008,07,14,13,30,50.70
2008,07,14,13,31,50.70
2008,07,14,13,32,65.60
2008,07,14,13,33,65.60
2008,07,14,13,34,65.60
2008,07,14,13,35,65.60
2008,07,14,13,36,65.60
2008,07,14,13,37,65.60
2008,07,14,13,38,65.60
2008,07,14,13,39,65.60
2008,07,14,13,40,65.60
2008,07,14,13,41,65.60
2008,07,14,13,42,65.60
2008,07,14,13,43,65.60
2008,07,14,13,44,65.60
2008,07,14,13,45,65.60
2008,07,14,13,46,65.60
2008,07,14,13,47,53.70
2008,07,14,13,48,53.70
2008,07,14,13,50,53.70
2008,07,14,13,51,53.70
2008,07,14,13,52,53.70
2008,07,14,13,53,53.70
2008,07,14,13,54,53.70
2008,07,14,13,55,53.70
2008,07,14,13,56,53.70
2008,07,14,13,57,53.70
2008,07,14,13,58,53.70
2008,07,14,13,59,53.70
2008,07,14,14,00,53.70
2008,07,14,14,01,53.70
2008,07,14,14,02,41.70
2008,07,14,14,03,41.70
2008,07,14,14,04,41.70
2008,07,14,14,05,41.70
2008,07,14,14,06,41.70
2008,07,14,14,07,41.70
2008,07,14,14,08,41.70
2008,07,14,14,09,41.70
2008,07,14,14,10,41.70
2008,07,14,14,11,41.70
2008,07,14,14,12,41.70
2008,07,14,14,13,41.70
2008,07,14,14,14,41.70
2008,07,14,14,15,41.70
2008,07,14,14,16,41.70
2008,07,14,14,17,65.60
2008,07,14,14,18,65.60
2008,07,14,14,19,65.60
2008,07,14,14,20,65.60
2008,07,14,14,21,65.60
2008,07,14,14,22,65.60
2008,07,14,14,23,65.60
2008,07,14,14,24,65.60
2008,07,14,14,25,65.60
2008,07,14,14,26,65.60
2008,07,14,14,27,65.60
2008,07,14,14,28,65.60
2008,07,14,14,29,65.60
2008,07,14,14,30,65.60
2008,07,14,14,31,65.60
2008,07,14,14,32,77.40
2008,07,14,14,33,77.40
2008,07,14,14,34,77.40
2008,07,14,14,35,77.40
2008,07,14,14,36,77.40
2008,07,14,14,37,77.40
2008,07,14,14,38,77.40
2008,07,14,14,39,77.40
2008,07,14,14,40,77.40
2008,07,14,14,41,77.40
2008,07,14,14,42,77.40
2008,07,14,14,43,77.40
2008,07,14,14,44,77.40
2008,07,14,14,45,77.40
2008,07,14,14,46,77.40
2008,07,14,14,47,44.60
2008,07,14,14,48,44.60
2008,07,14,14,49,44.60
2008,07,14,14,50,44.60
2008,07,14,14,51,44.60
2008,07,14,14,52,44.60
2008,07,14,14,53,44.60
2008,07,14,14,54,44.60
2008,07,14,14,55,44.60
2008,07,14,14,56,44.60
2008,07,14,14,57,44.60
2008,07,14,14,58,44.60
2008,07,14,14,59,44.60
2008,07,14,15,00,44.60
2008,07,14,15,01,44.60
2008,07,14,15,02,56.70
2008,07,14,15,03,56.70
2008,07,14,15,04,56.70
2008,07,14,15,05,56.70
2008,07,14,15,06,56.70
2008,07,14,15,08,56.70
2008,07,14,15,09,56.70
2008,07,14,15,10,56.70
2008,07,14,15,11,56.70
2008,07,14,15,12,56.70
2008,07,14,15,13,56.70
2008,07,14,15,14,56.70
2008,07,14,15,15,56.70
2008,07,14,15,16,56.70
2008,07,14,15,17,53.70
2008,07,14,15,18,53.70
2008,07,14,15,19,53.70
2008,07,14,15,20,53.70
2008,07,14,15,21,53.70
2008,07,14,15,22,53.70
2008,07,14,15,23,53.70
2008,07,14,15,24,53.70
2008,07,14,15,25,53.70
2008,07,14,15,26,53.70
2008,07,14,15,27,53.70
2008,07,14,15,28,53.70
2008,07,14,15,29,53.70
2008,07,14,15,30,53.70
2008,07,14,15,31,53.70
2008,07,14,15,32,47.60
2008,07,14,15,33,47.60
2008,07,14,15,34,47.60
2008,07,14,15,35,47.60
2008,07,14,15,36,47.60
2008,07,14,15,37,47.60
2008,07,14,15,38,47.60
2008,07,14,15,39,47.60
2008,07,14,15,40,47.60
2008,07,14,15,41,47.60
2008,07,14,15,42,47.60
2008,07,14,15,43,47.60
2008,07,14,15,44,47.60
2008,07,14,15,45,47.60
2008,07,14,15,46,47.60
2008,07,14,15,47,38.70
2008,07,14,15,48,38.70
2008,07,14,15,49,38.70
2008,07,14,15,50,38.70
2008,07,14,15,51,38.70
2008,07,14,15,52,38.70
2008,07,14,15,53,38.70
2008,07,14,15,54,38.70
2008,07,14,15,55,38.70
2008,07,14,15,56,38.70
2008,07,14,15,57,38.70
2008,07,14,15,58,38.70
2008,07,14,15,59,38.70
2008,07,14,16,00,38.70
2008,07,14,16,01,38.70
2008,07,14,16,02,18.00
2008,07,14,16,03,18.00
2008,07,14,16,04,18.00
2008,07,14,16,05,18.00
2008,07,14,16,06,18.00
2008,07,14,16,07,18.00
2008,07,14,16,08,18.00
2008,07,14,16,09,18.00
2008,07,14,16,10,18.00
2008,07,14,16,11,18.00
2008,07,14,16,12,18.00
2008,07,14,16,13,18.00
2008,07,14,16,14,18.00
2008,07,14,16,15,18.00
2008,07,14,16,16,18.00
2008,07,14,16,17,47.60
2008,07,14,16,18,47.60
2008,07,14,16,19,47.60
2008,07,14,16,20,47.60
2008,07,14,16,21,47.60
2008,07,14,16,22,47.60
2008,07,14,16,23,47.60
2008,07,14,16,24,47.60
2008,07,14,16,25,47.60
2008,07,14,16,26,47.60
2008,07,14,16,27,47.60
2008,07,14,16,28,47.60
2008,07,14,16,29,47.60
2008,07,14,16,30,47.60
2008,07,14,16,31,47.60
2008,07,14,16,32,47.60
2008,07,14,16,33,41.70
2008,07,14,16,34,41.70
2008,07,14,16,35,41.70
2008,07,14,16,36,41.70
2008,07,14,16,38,41.70
2008,07,14,16,39,41.70
2008,07,14,16,40,41.70
2008,07,14,16,41,41.70
2008,07,14,16,42,41.70
2008,07,14,16,43,41.70
2008,07,14,16,44,41.70
2008,07,14,16,45,41.70
2008,07,14,16,46,41.70
2008,07,14,16,47,41.70
2008,07,14,16,48,38.70
2008,07,14,16,49,38.70
2008,07,14,16,50,38.70
2008,07,14,16,51,38.70
2008,07,14,16,52,38.70
2008,07,14,16,53,38.70
2008,07,14,16,54,38.70
2008,07,14,16,55,38.70
2008,07,14,16,56,38.70
2008,07,14,16,57,38.70
2008,07,14,16,58,38.70
2008,07,14,16,59,38.70
2008,07,14,17,00,38.70
2008,07,14,17,01,38.70
2008,07,14,17,02,38.70
2008,07,14,17,03,35.70
2008,07,14,17,04,35.70
2008,07,14,17,05,35.70
2008,07,14,17,06,35.70
2008,07,14,17,07,35.70
2008,07,14,17,08,35.70
2008,07,14,17,09,35.70
2008,07,14,17,10,35.70
2008,07,14,17,11,35.70
2008,07,14,17,12,35.70
2008,07,14,17,13,35.70
2008,07,14,17,14,35.70
2008,07,14,17,15,35.70
2008,07,14,17,16,35.70
2008,07,14,17,17,35.70
2008,07,14,17,18,41.70
2008,07,14,17,19,41.70
2008,07,14,17,20,41.70
2008,07,14,17,21,41.70
2008,07,14,17,22,41.70
2008,07,14,17,23,41.70
2008,07,14,17,24,41.70
2008,07,14,17,25,41.70
2008,07,14,17,26,41.70
2008,07,14,17,27,41.70
2008,07,14,17,28,41.70
2008,07,14,17,29,41.70
2008,07,14,17,30,41.70
2008,07,14,17,31,41.70
2008,07,14,17,32,41.70
2008,07,14,17,33,23.90
2008,07,14,17,34,23.90
2008,07,14,17,35,23.90
2008,07,14,17,36,23.90
2008,07,14,17,37,23.90
2008,07,14,17,38,23.90
2008,07,14,17,39,23.90
2008,07,14,17,40,23.90
2008,07,14,17,41,23.90
2008,07,14,17,42,23.90
2008,07,14,17,43,23.90
2008,07,14,17,44,23.90
2008,07,14,17,45,23.90
2008,07,14,17,46,23.90
2008,07,14,17,47,23.90
2008,07,14,17,48,32.80
2008,07,14,17,49,32.80
2008,07,14,17,50,32.80
2008,07,14,17,51,32.80
2008,07,14,17,52,32.80